Hourly Data Report for October 30, 2013

All times are specified in Local Standard Time (LST). Add 1 hour to adjust for Daylight Saving Time where and when it is observed.

CAPE DORSET A
NUNAVUT

64°13'49.000" N
76°31'30.000" W
48.20 m
2400637
71366
YTE

Download Data

Hourly Data (October 2013)
Hourly Data Report for October 30, 2013
Temp Definition
°C
Dew Point Temp Definition
°C
Rel Hum Definition
%
Wind Dir Definition
10's deg

Wind Spd Definition
km/h
Visibility Definition
km
Stn Press Definition
kPa
Hmdx Definition


Wind Chill Definition


Weather Definition


TIME
00:00 Legend Double Dagger -8.4 -12.7 71 19 11 16.1 99.80   -14 LegendNANA
01:00 Legend Double Dagger -9.4 -13.3 74 19 11 16.1 99.82   -15 LegendNANA
02:00 Legend Double Dagger -8.8 -13.2 71 18 11 16.1 99.86   -14 LegendNANA
03:00 Legend Double Dagger -8.0 -11.9 74 18 11 16.1 99.88   -13 LegendNANA
04:00 Legend Double Dagger -7.3 -11.8 70 17 11 16.1 99.89   -12 LegendNANA
05:00 Legend Double Dagger -6.5 -7.7 91 18 8 1.2 99.90   -10 LegendNANA
06:00 Legend Double Dagger -7.1 -8.1 93 30 11 2.0 99.93   -12 LegendNANA
07:00 Legend Double Dagger -7.9 -8.7 94 1 5 16.1 99.97   -11 LegendNANA
08:00 Legend Double Dagger -8.5 -9.5 93   0 16.1 100.02     LegendNANA
09:00 Legend Double Dagger -7.6 -8.7 92   0 16.1 100.04     LegendNANA
10:00 Legend Double Dagger -7.4 -9.4 86   0 16.1 100.07     LegendNANA
11:00 Legend Double Dagger -7.5 -8.7 92 LegendMM 4 16.1 100.08   -10 LegendNANA
12:00 Legend Double Dagger -7.3 -9.4 85 26 4 16.1 100.09   -9 LegendNANA
13:00 Legend Double Dagger -6.7 -10.5 75   0 16.1 100.09     LegendNANA
14:00 Legend Double Dagger -7.2 -10.1 80   0 16.1 100.11     LegendNANA
15:00 Legend Double Dagger -8.6 -10.3 88 3 5 16.1 100.15   -11 LegendNANA
16:00 Legend Double Dagger -9.3 -11.4 85   0 16.1 100.21     LegendNANA
17:00 Legend Double Dagger -10.2 -11.9 87 LegendMM 4 16.1 100.23   -13 LegendNANA
18:00 Legend Double Dagger -9.1 -10.7 88   0 16.1 100.24     LegendNANA
19:00 Legend Double Dagger -9.0 -14.0 67   0 16.1 100.27     LegendNANA
20:00 Legend Double Dagger -10.1 -16.0 63 5 5 16.1 100.27   -13 LegendNANA
21:00 Legend Double Dagger -9.8 -15.2 65 5 9 16.1 100.27   -15 LegendNANA
22:00 Legend Double Dagger -11.5 -14.5 79 6 8 16.1 100.27   -16 LegendNANA
23:00 Legend Double Dagger -10.8 -12.6 87 8 8 16.1 100.25   -15 LegendNANA

Notes on Data Quality.

Legend

  • E = Estimated
  • M = Missing
  • NA = Not Available
  • ‡ = Partner data that is not subject to review by the National Climate Archives
Date modified: